Weather History for Knox, IN

Change the Weather History Date:

Saturday, December 10, 2011

  Actual Average (KVPZ) Record (KVPZ)
Temperature  
Mean Temperature 15 °F 30 °F  
Max Temperature 23 °F 36 °F 55 °F (2007)
Min Temperature 7 °F 23 °F -3 °F (2013)
Degree Days  
Heating Degree Days 50 35  
Month to date heating degree days 336  
Since 1 July heating degree days 1594  
Cooling Degree Days 0 0  
Month to date cooling degree days 0  
Year to date cooling degree days 713  
Moisture  
Dew Point 7 °F    
Average Humidity 70    
Maximum Humidity 87    
Minimum Humidity 47    
Precipitation  
Precipitation 0.00 in 0.08 in 0.38 in (2003)
Month to date precipitation 0.84  
Year to date precipitation 36.17  
Sea Level Pressure  
Sea Level Pressure 30.48 in    
Wind  
Wind Speed 8 mph (SW)    
Max Wind Speed 10 mph    
Max Gust Speed -    
Visibility 10 miles    
Events      
T = Trace of Precipitation, MM = Missing Value Source: NWS Daily Summary

Daily Weather History Graph

Daily Weather History Graph

Search for Another Location

Airport:

Trip Planner

Search our weather history database for the weather conditions in past years. The results will help you decide how hot, cold, wet, or windy it might be!

Date:

Astronomy

Dec. 10, 2011 Rise Set
Actual Time 7:01 AM CST 4:17 PM CST
Civil Twilight 6:30 AM CST 4:48 PM CST
Nautical Twilight 5:55 AM CST 5:23 PM CST
Astronomical Twilight 5:22 AM CST 5:56 PM CST
Moon 4:30 PM CST (12/10) 7:01 AM CST (12/10)
Length of Visible Light 10h 18m
Length of Day
9h 15m
Full, 100% of the Moon is Illuminated
Dec 10
Full
Dec 17
Last Quarter
Dec 24
New
Jan 1
First Quarter
Jan 9
Full

Hourly Weather History & Observations

Time (CST) Temp. Windchill Dew Point Humidity Pressure Visibility Wind Dir Wind Speed Gust Speed Precip Events Conditions
12:15 AM 15.1 °F 5.2 °F 9.9 °F 80% 30.42 in 10.0 mi WSW 6.9 mph - N/A   Clear
12:35 AM 14.4 °F 2.4 °F 9.3 °F 80% 30.42 in 10.0 mi West 9.2 mph - N/A   Clear
12:55 AM 14.7 °F 2.9 °F 9.5 °F 80% 30.42 in 10.0 mi West 9.2 mph - N/A   Clear
1:15 AM 14.2 °F 3.1 °F 9.1 °F 80% 30.43 in 10.0 mi West 8.1 mph - N/A   Clear
1:35 AM 13.8 °F 3.7 °F 8.8 °F 80% 30.43 in 10.0 mi WSW 6.9 mph - N/A   Clear
1:55 AM 12.4 °F 3.1 °F 7.7 °F 82% 30.43 in 10.0 mi WSW 5.8 mph - N/A   Clear
2:15 AM 12.2 °F 2.9 °F 7.7 °F 82% 30.44 in 10.0 mi WSW 5.8 mph - N/A   Clear
2:35 AM 11.5 °F 2.1 °F 7.7 °F 85% 30.45 in 10.0 mi WSW 5.8 mph - N/A   Clear
2:55 AM 10.6 °F 1.0 °F 7.0 °F 85% 30.45 in 10.0 mi SW 5.8 mph - N/A   Clear
3:15 AM 10.0 °F -0.9 °F 6.6 °F 86% 30.44 in 10.0 mi SW 6.9 mph - N/A   Clear
3:35 AM 10.0 °F -0.9 °F 6.3 °F 85% 30.43 in 10.0 mi SSW 6.9 mph - N/A   Clear
3:55 AM 10.0 °F -1.9 °F 6.4 °F 85% 30.43 in 10.0 mi SW 8.1 mph - N/A   Clear
4:15 AM 10.4 °F 0.8 °F 6.4 °F 84% 30.44 in 10.0 mi WSW 5.8 mph - N/A   Clear
4:55 AM 10.0 °F -1.9 °F 6.4 °F 85% 30.45 in 10.0 mi WSW 8.1 mph - N/A   Clear
5:35 AM 8.8 °F 0.4 °F 5.2 °F 85% 30.45 in 10.0 mi WSW 4.6 mph - N/A   Clear
5:55 AM 7.3 °F -2.8 °F 4.3 °F 87% 30.46 in 10.0 mi WSW 5.8 mph - N/A   Clear
6:15 AM 7.3 °F -5.2 °F 4.3 °F 87% 30.47 in 10.0 mi SW 8.1 mph - N/A   Clear
6:35 AM 8.4 °F -3.9 °F 5.2 °F 87% 30.48 in 10.0 mi SW 8.1 mph - N/A   Clear
6:55 AM 9.0 °F -4.2 °F 5.5 °F 86% 30.48 in 10.0 mi SW 9.2 mph - N/A   Clear
7:15 AM 8.4 °F -2.8 °F 5.0 °F 86% 30.49 in 10.0 mi SW 6.9 mph - N/A   Clear
7:35 AM 8.6 °F -2.6 °F 5.2 °F 86% 30.49 in 10.0 mi SW 6.9 mph - N/A   Clear
7:55 AM 9.5 °F -0.3 °F 5.9 °F 85% 30.50 in 10.0 mi SW 5.8 mph - N/A   Clear
8:15 AM 10.6 °F -0.2 °F 6.8 °F 85% 30.51 in 10.0 mi SW 6.9 mph - N/A   Clear
8:35 AM 12.2 °F 1.7 °F 8.1 °F 83% 30.51 in 10.0 mi SW 6.9 mph - N/A   Clear
8:55 AM 13.8 °F 1.8 °F 8.8 °F 80% 30.52 in 10.0 mi SW 9.2 mph - N/A   Clear
9:15 AM 14.7 °F 3.8 °F 9.3 °F 79% 30.53 in 10.0 mi SW 8.1 mph - N/A   Clear
9:35 AM 16.0 °F 6.3 °F 9.7 °F 76% 30.53 in 10.0 mi SW 6.9 mph - N/A   Clear
9:55 AM 16.9 °F 7.4 °F 9.3 °F 72% 30.53 in 10.0 mi SW 6.9 mph - N/A   Clear
10:15 AM 17.6 °F 5.7 °F 8.4 °F 67% 30.53 in 10.0 mi SW 10.4 mph - N/A   Clear
10:35 AM 18.5 °F 7.5 °F 8.4 °F 65% 30.53 in 10.0 mi SW 9.2 mph - N/A   Clear
10:55 AM 19.0 °F 8.2 °F 8.4 °F 63% 30.53 in 10.0 mi SW 9.2 mph - N/A   Clear
11:15 AM 19.8 °F 8.3 °F 7.3 °F 59% 30.52 in 10.0 mi SW 10.4 mph - N/A   Clear
11:35 AM 20.7 °F 9.5 °F 6.3 °F 54% 30.52 in 10.0 mi SW 10.4 mph - N/A   Clear
11:55 AM 21.2 °F 10.9 °F 7.0 °F 54% 30.51 in 10.0 mi WSW 9.2 mph - N/A   Clear
12:15 PM 21.7 °F 11.5 °F 7.0 °F 53% 30.51 in 10.0 mi SW 9.2 mph - N/A   Clear
12:35 PM 22.1 °F 12.8 °F 7.2 °F 53% 30.50 in 10.0 mi SW 8.1 mph - N/A   Clear
12:55 PM 22.5 °F 12.4 °F 6.4 °F 50% 30.49 in 10.0 mi SW 9.2 mph - N/A   Clear
1:15 PM 22.8 °F 12.9 °F 6.6 °F 50% 30.49 in 10.0 mi SW 9.2 mph - N/A   Clear
1:35 PM 23.0 °F 12.4 °F 6.4 °F 49% 30.48 in 10.0 mi WSW 10.4 mph - N/A   Clear
1:55 PM 23.4 °F 13.5 °F 5.7 °F 47% 30.47 in 10.0 mi WSW 9.2 mph - N/A   Clear
2:15 PM 23.7 °F 14.0 °F 6.1 °F 47% 30.46 in 10.0 mi WSW 9.2 mph - N/A   Clear
2:35 PM 23.7 °F 14.7 °F 7.0 °F 49% 30.46 in 10.0 mi SW 8.1 mph - N/A   Clear
2:55 PM 23.9 °F 14.2 °F 7.3 °F 49% 30.46 in 10.0 mi SSW 9.2 mph - N/A   Clear
3:15 PM 23.7 °F 14.7 °F 8.1 °F 51% 30.46 in 10.0 mi SSW 8.1 mph - N/A   Clear
3:35 PM 23.4 °F 12.8 °F 7.7 °F 51% 30.46 in 10.0 mi SSW 10.4 mph - N/A   Clear
3:55 PM 22.8 °F 12.9 °F 7.9 °F 53% 30.46 in 10.0 mi SSW 9.2 mph - N/A   Clear
4:15 PM 22.1 °F 12.8 °F 7.5 °F 54% 30.47 in 10.0 mi SW 8.1 mph - N/A   Clear
4:35 PM 20.8 °F 12.1 °F 7.5 °F 56% 30.47 in 10.0 mi SW 6.9 mph - N/A   Clear
4:55 PM 19.6 °F 11.7 °F 7.2 °F 59% 30.48 in 10.0 mi SSW 5.8 mph - N/A   Clear
5:15 PM 19.2 °F 11.3 °F 6.8 °F 59% 30.48 in 10.0 mi SSW 5.8 mph - N/A   Clear
5:35 PM 18.9 °F 10.8 °F 6.6 °F 59% 30.48 in 10.0 mi SSW 5.8 mph - N/A   Clear
5:55 PM 18.1 °F 11.3 °F 6.6 °F 61% 30.48 in 10.0 mi South 4.6 mph - N/A   Clear
6:15 PM 16.2 °F 7.6 °F 6.3 °F 65% 30.47 in 10.0 mi South 5.8 mph - N/A   Clear
6:35 PM 16.5 °F 6.9 °F 6.6 °F 65% 30.47 in 10.0 mi South 6.9 mph - N/A   Clear
6:55 PM 17.2 °F 7.8 °F 7.3 °F 65% 30.47 in 10.0 mi South 6.9 mph - N/A   Clear
7:15 PM 17.1 °F 7.6 °F 7.7 °F 67% 30.48 in 10.0 mi SSW 6.9 mph - N/A   Clear
7:35 PM 16.5 °F 6.9 °F 7.7 °F 68% 30.47 in 10.0 mi South 6.9 mph - N/A   Clear
7:55 PM 16.5 °F 8.1 °F 8.1 °F 69% 30.48 in 10.0 mi SSW 5.8 mph - N/A   Clear
8:15 PM 17.1 °F 8.7 °F 8.4 °F 69% 30.48 in 10.0 mi SSW 5.8 mph - N/A   Clear
8:35 PM 17.4 °F 9.1 °F 8.6 °F 68% 30.48 in 10.0 mi SSW 5.8 mph - N/A   Clear
8:55 PM 16.9 °F 7.4 °F 8.4 °F 69% 30.48 in 10.0 mi SSW 6.9 mph - N/A   Clear
9:15 PM 16.9 °F 7.4 °F 8.4 °F 69% 30.48 in 10.0 mi SSW 6.9 mph - N/A   Clear
9:35 PM 17.2 °F 7.8 °F 8.6 °F 69% 30.48 in 10.0 mi SSW 6.9 mph - N/A   Clear
9:55 PM 17.2 °F 7.8 °F 8.6 °F 69% 30.48 in 10.0 mi SSW 6.9 mph - N/A   Clear
10:15 PM 17.4 °F 9.1 °F 8.6 °F 68% 30.47 in 10.0 mi SSW 5.8 mph - N/A   Clear
10:35 PM 18.1 °F 8.9 °F 9.0 °F 67% 30.47 in 10.0 mi SSW 6.9 mph - N/A   Clear
10:55 PM 18.7 °F 8.6 °F 9.5 °F 67% 30.47 in 10.0 mi South 8.1 mph - N/A   Clear
11:15 PM 18.7 °F 7.0 °F 9.5 °F 67% 30.46 in 10.0 mi South 10.4 mph - N/A   Scattered Clouds
11:35 PM 20.1 °F 10.3 °F 10.4 °F 66% 30.47 in 10.0 mi SSW 8.1 mph - N/A   Mostly Cloudy
11:55 PM 21.6 °F 11.3 °F 11.7 °F 66% 30.46 in 10.0 mi SW 9.2 mph - N/A   Overcast